Regional Weather Roundup
Issued by NWS Kansas City/Pleasant Hill, MO

Home | Current Version | Previous Version | Text Only | Print | Product List | Glossary On
Versions: 1 2 3 4 5 6 7 8 9 10 11 12 13 14 15 16 17 18 19 20 21 22 23 24 25 26 27 28 29 30 31 32 33 34 35 36 37 38 39 40 41 42 43 44 45 46 47 48 49 50
745
ASUS43 KEAX 110410
RWREAX

WEATHER ROUNDUP FOR EASTERN KANSAS AND NORTHWEST MISSOURI
NATIONAL WEATHER SERVICE KANSAS CITY/PLEASANT HILL MO
1000 PM CST SUN DEC 10 2017

KSZ040-057-103>105-MOZ028-029-037-043-110500-
...KANSAS CITY METROPOLITAN AREA...

CITY           SKY/WX    TMP DP  RH WIND       PRES   REMARKS
K.C. INTL      CLEAR     40  23  50 S5        30.12F
K.C. DOWNTOWN  CLEAR     37  27  67 CALM      30.13F
LEES SUMMIT    CLEAR     45  24  43 SW5       30.14S
OLATHE - IXD   CLEAR     39  23  52 SW5       30.15S
OLATHE - OJC   CLEAR     41  23  48 CALM      30.14F
LAWRENCE       CLEAR     28  22  78 CALM      30.14F

$$

MOZ001>008-011>017-020>025-030>033-038>040-044>046-053-054-110500-
...NORTHERN AND CENTRAL MISSOURI...

CITY           SKY/WX    TMP DP  RH WIND       PRES   REMARKS
ST. JOSEPH     CLEAR     31  26  82 S5        30.13S WCI  26
MOSBY          CLEAR     30  23  74 CALM      30.14S
WARRENSBURG    CLEAR     34  27  75 S5        30.15S WCI  30
WHITEMAN AFB   CLEAR     35  24  65 SW7       30.11S WCI  29
CLINTON        CLEAR     32  23  69 CALM      30.16F
SEDALIA        CLEAR     43  27  53 SW10      30.16S
WARSAW         NOT AVBL
CHILLICOTHE      N/A     31  24  75 CALM      30.13S
KIRKSVILLE     CLEAR     28  23  81 W5        30.11R WCI  23

$$

MOZ041-047>049-056>058-063>065-088>090-097-110500-
...EASTERN AND SOUTHERN MISSOURI...

CITY           SKY/WX    TMP DP  RH WIND       PRES   REMARKS
ST. LOUIS INTL CLEAR     35  25  66 W3        30.14S
SPIRIT OF STL  CLEAR     29  24  82 SW3       30.13F
COLUMBIA       CLEAR     43  25  49 W7        30.14S
JEFFERSON CITY CLEAR     33  25  72 CALM      30.16S
ROLLA          CLEAR     37  25  61 W7        30.15S WCI  32
SPRINGFIELD    CLEAR     39  23  52 SW3       30.17S
BRANSON        PTCLDY    46  23  39 CALM      30.20S
JOPLIN         CLEAR     43  24  47 SW6       30.19F
WEST PLAINS    CLEAR     39  23  52 W6        30.18R WCI  35

$$

IAZ060-094-KSZ022-034>040-054-083-096-NEZ052-066-093-110500-
...KANSAS...SOUTHEAST NEBRASKA AND IOWA...

CITY           SKY/WX    TMP DP  RH WIND       PRES   REMARKS
TOPEKA         CLEAR     31  22  69 CALM      30.13F
MANHATTAN      CLEAR     34  17  50 CALM      30.14F
EMPORIA        CLEAR     42  17  36 W8        30.15F
CHANUTE        CLEAR     37  22  54 SW5       30.18F WCI  33
WICHITA        CLEAR     38  19  46 W7        30.19F WCI  33
OMAHA          CLOUDY    31  24  75 SE6       30.06F WCI  25
LINCOLN        CLEAR     32  18  56 CALM      30.08F
FALLS CITY     CLEAR     31  20  63 NE3       30.10F
LAMONI         CLEAR     36  24  62 SW6       30.08F WCI  31
DES MOINES     CLOUDY    36  25  64 CALM      30.06F

$$





USA.gov is the U.S. government's official web portal to all federal, state and local government web resources and services.